This is the latest recevied weather packets stored in our database for station/object N7CW. If no packets are shown the sender has not sent any weather packets the latest 10 day(s).
| Time | Temp. | Humidity | Pressure | Rain* | Wind** | Luminosity | Snow |
|---|---|---|---|---|---|---|---|
| 1777173331 | 12.22° C | 28% | 1011.2 hPa | 0 mm | - | 0 W/m² | - |
| 1777173026 | 12.22° C | 28% | 1011.1 hPa | 0 mm | - | 0 W/m² | - |
| 1777172725 | 11.67° C | 28% | 1011.3 hPa | 0 mm | - | 0 W/m² | - |
| 1777172421 | 12.22° C | 27% | 1010.8 hPa | 0 mm | - | 0 W/m² | - |
| 1777172115 | 12.22° C | 27% | 1010.9 hPa | 0 mm | - | 0 W/m² | - |
| 1777171813 | 12.22° C | 27% | 1010.9 hPa | 0 mm | - | 0 W/m² | - |
| 1777171204 | 12.22° C | 27% | 1010.8 hPa | 0 mm | - | 0 W/m² | - |
| 1777170903 | 12.22° C | 27% | 1010.8 hPa | 0 mm | - | 0 W/m² | - |
| 1777170600 | 12.22° C | 27% | 1010.8 hPa | 0 mm | - | 0 W/m² | - |
| 1777170295 | 12.22° C | 27% | 1010.7 hPa | 0 mm | - | 0 W/m² | - |
| 1777169993 | 12.78° C | 26% | 1010.6 hPa | 0 mm | - | 1 W/m² | - |
| 1777169689 | 12.78° C | 26% | 1010.6 hPa | 0 mm | - | 2 W/m² | - |
| 1777169385 | 12.78° C | 27% | 1010.6 hPa | 0 mm | - | 4 W/m² | - |
| 1777169080 | 12.78° C | 26% | 1010.6 hPa | 0 mm | - | 6 W/m² | - |
| 1777168776 | 12.78° C | 26% | 1010.7 hPa | 0 mm | - | 9 W/m² | - |
| 1777168472 | 12.78° C | 26% | 1010.7 hPa | 0 mm | - | 12 W/m² | - |
| 1777168170 | 12.78° C | 26% | 1010.7 hPa | 0 mm | - | 18 W/m² | - |
| 1777167867 | 12.78° C | 26% | 1011.2 hPa | 0 mm | - | 20 W/m² | - |
| 1777167562 | 12.78° C | 26% | 1011.1 hPa | 0 mm | - | 25 W/m² | - |
| 1777167258 | 12.78° C | 25% | 1011.1 hPa | 0 mm | - | 26 W/m² | - |
| 1777166954 | 13.33° C | 25% | 1011.1 hPa | 0 mm | - | 29 W/m² | - |
| 1777166649 | 13.33° C | 24% | 1011.1 hPa | 0 mm | - | 44 W/m² | - |
| 1777166345 | 13.33° C | 24% | 1011.1 hPa | 0 mm | - | 46 W/m² | - |
| 1777166040 | 13.89° C | 24% | 1011.1 hPa | 0 mm | - | 57 W/m² | - |
| 1777165739 | 13.89° C | 24% | 1011.3 hPa | 0 mm | - | 74 W/m² | - |
* Rain latest hour (hover to see other rain measurements)
** Current wind speed in m/s (hover to see current wind gust speed)